Regional Weather Roundup
Issued by NWS

Home | Current Version | Previous Version | Graphics & Text | Print | Product List | Glossary On
Versions: 1 2 3 4 5 6 7 8 9 10 11 12 13 14 15 16 17 18 19 20 21 22 23 24 25 26 27 28 29 30 31 32 33 34 35 36 37 38 39 40 41 42 43 44 45 46 47 48 49 50
000
ASUS43 KOAX 181210
RWRNE

WEATHER ROUNDUP FOR NEBRASKA
NATIONAL WEATHER SERVICE OMAHA NE
600 AM CST MON DEC 18 2017

NOTES: SATELLITE DATA IS BEING USED TO AUGMENT CLOUD COVER ABOVE
       12000 FEET.
       "FAIR" INDICATES FEW OR NO CLOUDS BELOW 12,000 FEET WITH NO
       SIGNIFICANT WEATHER AND/OR OBSTRUCTIONS TO VISIBILITY.


NEZ001>004-019>022-054>056-181300-
NEBRASKA PANHANDLE

CITY           SKY/WX    TMP DP  RH WIND       PRES   REMARKS
SCOTTSBLUFF    CLOUDY    21  13  71 E3        29.90F
6HR MIN TEMP:  17; 6HR MAX TEMP:  24;

ALLIANCE       CLOUDY    15  10  80 W6        29.88F WCI   6
6HR MIN TEMP:  11; 6HR MAX TEMP:  22;

CHADRON        CLOUDY    21  15  78 CALM      29.86F
6HR MIN TEMP:  16; 6HR MAX TEMP:  25;

GORDON         FAIR      30  19  63 W10       29.84F WCI  21
6HR MIN TEMP:  25; 6HR MAX TEMP:  32;

KIMBALL        CLOUDY    21  19  89 W10       29.94R WCI  10
SIDNEY         CLOUDY    18  15  88 W9        29.93F WCI   7
6HR MIN TEMP:  18; 6HR MAX TEMP:  24;

$$

NEZ057>060-069>072-079>082-181300-
SOUTHWEST NEBRASKA

CITY           SKY/WX    TMP DP  RH WIND       PRES   REMARKS
NORTH PLATTE   CLOUDY    18  16  92 NW6       29.94F WCI  10
6HR MIN TEMP:  18; 6HR MAX TEMP:  28;

IMPERIAL       CLOUDY    21  18  88 W7        29.96F WCI  12
6HR MIN TEMP:  21; 6HR MAX TEMP:  26;

LEXINGTON      CLOUDY    19  16  88 NW6       29.95F WCI  11
MCCOOK         CLOUDY    24  20  84 W14       29.98F WCI  12
6HR MIN TEMP:  21; 6HR MAX TEMP:  27;

OGALLALA       CLEAR     21  18  90 W5        29.95F WCI  14
$$

NEZ005>010-023>029-035>040-094-181300-
NORTH CENTRAL NEBRASKA

CITY           SKY/WX    TMP DP  RH WIND       PRES   REMARKS
VALENTINE      CLEAR     26  20  77 W9        29.85F WCI  17
6HR MIN TEMP:  24; 6HR MAX TEMP:  31;

AINSWORTH      CLEAR     28  23  81 W9        29.85F WCI  19
BROKEN BOW     CLOUDY    30  20  66 W13       29.90S WCI  20
6HR MIN TEMP:  29; 6HR MAX TEMP:  33;

O`NEILL        CLOUDY    30  27  88 W10       29.85F WCI  21
ORD            CLOUDY    29  22  75 W8        29.89F WCI  21
6HR MIN TEMP:  26; 6HR MAX TEMP:  32;

THEDFORD       CLOUDY    31  20  65 W10       29.89S WCI  22
$$

NEZ041-046>049-061>064-073>077-083>087-181300-
SOUTH CENTRAL NEBRASKA

CITY           SKY/WX    TMP DP  RH WIND       PRES   REMARKS
GRAND ISLAND   CLEAR     30  26  85 W12       29.94R WCI  20
6HR MIN TEMP:  27; 6HR MAX TEMP:  32;

AURORA         CLEAR     29  26  87 W13       29.93S WCI  19
HASTINGS       CLEAR     27  23  85 SW8       29.95S WCI  19
6HR MIN TEMP:  25; 6HR MAX TEMP:  30;

HEBRON         CLEAR     29  27  91 SW10      29.98F WCI  20
HOLDREGE       CLOUDY    25  23  92 W10       29.96S WCI  15
KEARNEY        CLEAR     26  22  84 W5        29.95F WCI  20
YORK           CLEAR     27  27 100 SW9       29.93F WCI  17
$$

NEZ011>018-030>034-042>045-181300-
NORTHEAST NEBRASKA

CITY           SKY/WX    TMP DP  RH WIND       PRES   REMARKS
NORFOLK        CLOUDY    28  25  88 SW9       29.85F WCI  19
6HR MIN TEMP:  19; 6HR MAX TEMP:  31;

ALBION         CLEAR     31  26  79 NW7       29.88S WCI  25
BLAIR          CLOUDY    30  28  92 S9        29.91S WCI  22
COLUMBUS       CLEAR     29  27  92 SW9       29.91S WCI  20
FREMONT        CLOUDY    30  28  92 SW9       29.91F WCI  21
TEKAMAH        CLOUDY    20  17  88 S7        29.90F WCI  11
6HR MIN TEMP:  17; 6HR MAX TEMP:  22;

WAYNE          CLOUDY    23  22  96 SW6       29.85S WCI  16
$$

NEZ050>053-065>068-078-088>093-181300-
SOUTHEAST NEBRASKA

CITY           SKY/WX    TMP DP  RH WIND       PRES   REMARKS
LINCOLN        CLEAR     31  28  89 SW10      29.96S WCI  22
6HR MIN TEMP:  24; 6HR MAX TEMP:  31;

OMAHA EPPLEY   CLOUDY    26  22  84 SE10      29.94F WCI  16
6HR MIN TEMP:  24; 6HR MAX TEMP:  28;

BEATRICE       CLEAR     29  27  94 SW7       29.98F WCI  22
FALLS CITY     CLEAR     29  27  92 CALM      30.00S FOG
6HR MIN TEMP:  27; 6HR MAX TEMP:  37;

NEBRASKA CITY  CLEAR     29  29 100 SW13      29.97F WCI  19
PLATTSMOUTH    CLOUDY    27  26  99 S8        29.95F FOG     WCI  18
$$

NEZ044-045-051>053-067-181300-
OMAHA AREA

CITY           SKY/WX    TMP DP  RH WIND       PRES   REMARKS
OMAHA EPPLEY   CLOUDY    26  22  84 SE10      29.94F WCI  16
6HR MIN TEMP:  24; 6HR MAX TEMP:  28;

BLAIR          CLOUDY    30  28  92 S9        29.91S WCI  22
FREMONT        CLOUDY    30  28  92 SW9       29.91F WCI  21
MILLARD        CLEAR     27  25  94 SE3       29.94F FOG
OFFUTT AFB     CLOUDY    20  18  92 SE3       29.94F
PLATTSMOUTH    CLOUDY    27  26  99 S8        29.95F FOG     WCI  18
WAHOO          FAIR      30  27  91 SW9       29.92S WCI  21
$$




USA.gov is the U.S. government's official web portal to all federal, state and local government web resources and services.